User: anonymous   Login
Location: Unspecified
(0.0000°N, 0.0000°E)
Time: 03:55:04
(UTC+00:00)
Language:

Gonets-D1 - Orbit

View from above orbital plane
View from above orbital plane
View from above satellite
View from above satellite

Ground track
Ground track

The orbit data is extracted from the following two-line orbital elements,

1 24726U 97006B   24206.41565725  .00000010  00000-0 -24774-5 0  9993
2 24726  82.6034 343.6386 0004778 208.6243 151.4586 12.61370269263132
Epoch (UTC): 24 July 2024 09:58:32
Eccentricity: 0.0004778
inclination: 82.6034°
perigee height: 1413 km
apogee height: 1421 km
right ascension of ascending node: 343.6386°
argument of perigee: 208.6243°
revolutions per day: 12.61370269
mean anomaly at epoch: 151.4586°
orbit number at epoch: 26313

The dashed part of the orbit path shows where the satellite is in the earth's shadow,  

DLR